Weather History for McCall, ID

Change the Weather History Date:

Monday, January 27, 2014

  Actual Average Record
Temperature  
Mean Temperature 24 °F 20 °F  
Max Temperature 37 °F 30 °F 47 °F (1987)
Min Temperature 11 °F 11 °F -24 °F (1957)
Degree Days  
Heating Degree Days 41 45  
Month to date heating degree days 1166 1224  
Since 1 July heating degree days 4712 5298  
Cooling Degree Days 0 0  
Month to date cooling degree days 0 0  
Year to date cooling degree days 0 0  
Moisture  
Dew Point 14 °F    
Average Humidity 70    
Maximum Humidity 88    
Minimum Humidity 52    
Precipitation  
Precipitation 0.00 in 0.05 in 1.25 in (1933)
Month to date precipitation 1.04 1.52  
Year to date precipitation 1.04 1.52  
Sea Level Pressure  
Sea Level Pressure 30.25 in    
Wind  
Wind Speed 2 mph (ESE)    
Max Wind Speed 13 mph    
Max Gust Speed 17 mph    
Visibility 10 miles    
Events      
T = Trace of Precipitation, MM = Missing Value Source: NWS Daily Summary

Daily Weather History Graph

Daily Weather History Graph

Search for Another Location

Airport:

Trip Planner

Search our weather history database for the weather conditions in past years. The results will help you decide how hot, cold, wet, or windy it might be!

Date:

Astronomy

Jan. 27, 2014 Rise Set
Actual Time 8:09 AM MST 5:45 PM MST
Civil Twilight 7:37 AM MST 6:17 PM MST
Nautical Twilight 7:02 AM MST 6:52 PM MST
Astronomical Twilight 6:27 AM MST 7:27 PM MST
Moon 4:57 AM MST (1/27) 2:34 PM MST (1/27)
Length of Visible Light 10h 39m
Length of Day
9h 36m
Waning Crescent, 14% of the Moon is Illuminated
Jan 27
Waning Crescent
Jan 30
New
Feb 6
First Quarter
Feb 14
Full
Feb 22
Last Quarter

Hourly Weather History & Observations

Time (MST) Temp. Windchill Dew Point Humidity Pressure Visibility Wind Dir Wind Speed Gust Speed Precip Events Conditions
12:51 AM 21.9 °F 17.2 °F 14.0 °F 72% 30.17 in 10.0 mi NNE 3.5 mph - N/A   Mostly Cloudy
1:51 AM 19.9 °F - 12.9 °F 74% 30.17 in 8.0 mi Calm Calm - N/A   Scattered Clouds
2:51 AM 17.1 °F 11.7 °F 10.9 °F 77% 30.17 in 10.0 mi NNE 3.5 mph - N/A   Clear
3:51 AM 15.1 °F - 10.0 °F 80% 30.19 in 10.0 mi Calm Calm - N/A   Clear
4:51 AM 14.0 °F - 10.0 °F 84% 30.18 in 9.0 mi Calm Calm - N/A   Clear
5:51 AM 15.1 °F - 10.9 °F 84% 30.19 in 10.0 mi Calm Calm - N/A   Overcast
6:51 AM 16.0 °F - 10.9 °F 81% 30.20 in 10.0 mi Calm Calm - N/A   Overcast
7:51 AM 15.1 °F 9.4 °F 10.0 °F 80% 30.22 in 9.0 mi ENE 3.5 mph - N/A   Clear
8:51 AM 14.0 °F - 10.9 °F 88% 30.24 in 5.0 mi Calm Calm - N/A   Clear
9:51 AM 19.9 °F 13.4 °F 12.9 °F 74% 30.25 in 9.0 mi ENE 4.6 mph - N/A   Clear
10:51 AM 21.0 °F 14.6 °F 14.0 °F 74% 30.26 in 10.0 mi South 4.6 mph - N/A   Clear
11:51 AM 25.0 °F 19.3 °F 17.1 °F 72% 30.25 in 10.0 mi South 4.6 mph - N/A   Clear
12:51 PM 28.0 °F 24.2 °F 17.1 °F 63% 30.22 in 10.0 mi South 3.5 mph - N/A   Clear
1:51 PM 36.0 °F 33.3 °F 19.9 °F 52% 30.20 in 10.0 mi Variable 3.5 mph - N/A   Clear
2:51 PM 36.0 °F - 19.0 °F 50% 30.21 in 10.0 mi Calm Calm - N/A   Clear
3:51 PM 33.1 °F 27.7 °F 19.0 °F 56% 30.26 in 10.0 mi Variable 5.8 mph - N/A   Clear
4:51 PM 32.0 °F 25.6 °F 18.0 °F 56% 30.29 in 10.0 mi West 6.9 mph - N/A   Clear
5:51 PM 28.0 °F 22.8 °F 17.1 °F 63% 30.29 in 10.0 mi WNW 4.6 mph - N/A   Clear
6:51 PM 24.1 °F - 16.0 °F 71% 30.30 in 10.0 mi Calm Calm - N/A   Clear
7:51 PM 21.0 °F 16.2 °F 15.1 °F 78% 30.32 in 10.0 mi SSW 3.5 mph - N/A   Clear
8:51 PM 23.0 °F - 16.0 °F 74% 30.33 in 10.0 mi Calm Calm - N/A   Clear
9:51 PM 21.9 °F - 15.1 °F 75% 30.33 in 10.0 mi Calm Calm - N/A   Clear
10:51 PM 21.0 °F - 15.1 °F 78% 30.35 in 10.0 mi Calm Calm - N/A   Clear
11:51 PM 17.1 °F 11.7 °F 12.9 °F 84% 30.36 in 10.0 mi ENE 3.5 mph - N/A   Clear